[[{"header":{"parameterUnit":"m.s-1","parameterCategory":1,"la1":30.2991,"la2":30.254,"lo1":-89.0895,"lo2":-89.0444,"dy":0.0017,"dx":0.0017,"nx":28,"ny":28,"refTime":"2025-09-04T09:00:00:Z","depth":0,"parameterNumber":2,"parameterNumberName":"U-component_of_WINDS"},"data":[0,0,0,0,0,0,0,0,0,0,0,0,0,0,0,0,0,0,0,0,0,0,0,0,0,0,0,0,0,0,0,0,0,0,0,0,0,0,0,0,0,0,0,0,0,0,0,0,0,0,0,0,0,0,0,0,0,0,-0.4412,-0.4412,0,-0.4358,-0.4357,-0.4357,-0.4309,-0.4308,-0.4308,-0.4307,-0.425,-0.4249,-0.4248,0,0,0,0,0,0,0,0,0,0,0,0,0,-0.4476,-0.4475,-0.4413,-0.4412,-0.4411,-0.4358,-0.4357,-0.4356,-0.4309,-0.4308,-0.4308,-0.4307,-0.425,-0.4249,-0.4248,0,0,0,0,0,0,0,0,0,0,0,0,0,-0.4438,-0.4475,-0.4413,-0.4381,-0.4378,-0.4358,-0.4357,-0.4356,-0.4309,-0.4308,-0.4308,-0.4307,-0.4251,-0.4249,-0.4248,-0.4254,0,0,-0.4243,-0.4242,0,0,0,0,0,0,0,0,-0.444,-0.4435,-0.4386,-0.4383,-0.438,-0.4339,-0.4358,-0.4322,-0.4309,-0.4335,-0.4307,-0.4306,-0.428,-0.4276,-0.4268,-0.4252,-0.4249,-0.4243,-0.4242,-0.4241,-0.4241,0,0,0,0,0,0,0,-0.4443,-0.4438,-0.4391,-0.4386,-0.4382,-0.437,-0.4363,-0.4351,-0.4313,-0.4333,-0.4329,-0.4324,-0.4278,-0.4269,-0.4266,-0.4248,-0.4243,-0.4242,-0.4241,-0.424,-0.4237,-0.4238,0,0,0,0,0,0,-0.445,-0.444,-0.4393,-0.4389,-0.4408,-0.4369,-0.4362,-0.4353,-0.4313,-0.4306,-0.4324,-0.4322,-0.4272,-0.4268,-0.4264,-0.427,-0.4241,-0.424,-0.4239,-0.4236,-0.4237,-0.4238,0,0,0,0,0,0,-0.4452,-0.4446,-0.4395,-0.4414,-0.4406,-0.4369,-0.4359,-0.4352,-0.4343,-0.4306,-0.4299,-0.4322,-0.4272,-0.4266,-0.4258,-0.4267,-0.4239,-0.4238,-0.4235,-0.4236,-0.4237,-0.4282,0,0,0,0,0,0,-0.4454,-0.4447,-0.4449,-0.4414,-0.4405,-0.4389,-0.436,-0.4352,-0.4341,-0.4337,-0.4303,-0.4296,-0.4271,-0.426,-0.4256,-0.4265,-0.4237,-0.4234,-0.4235,-0.4237,-0.4279,-0.4284,-0.4289,0,0,0,0,0,-0.4456,-0.4463,-0.445,-0.4444,-0.4407,-0.439,-0.4385,-0.4356,-0.4342,-0.4344,-0.432,-0.4297,-0.4267,-0.426,-0.4255,-0.4263,-0.4233,-0.4235,-0.4237,-0.4277,-0.4283,-0.4289,0,0,0,0,0,0,-0.45,-0.4458,-0.4442,-0.4438,-0.4418,-0.4382,-0.4383,-0.4363,-0.4346,-0.4343,-0.4307,-0.43,-0.4295,-0.4278,-0.4271,-0.4268,-0.4247,-0.4248,-0.4279,-0.4285,-0.429,-0.4294,-0.4235,0,0,0,0,0,-0.4509,-0.4499,-0.4463,-0.4463,-0.4454,-0.4421,-0.4412,-0.4391,-0.4369,-0.436,-0.4336,-0.4315,-0.4301,-0.4292,-0.4277,-0.4277,-0.4269,-0.428,-0.4285,-0.4289,-0.429,-0.4291,-0.4295,-0.4244,-0.4244,-0.4244,0,0,-0.4528,-0.4504,-0.4499,-0.4471,-0.4453,-0.4444,-0.4414,-0.4404,-0.4397,-0.4358,-0.4349,-0.4331,-0.4305,-0.4302,-0.4299,-0.4287,-0.4303,-0.4291,-0.4295,-0.4294,-0.4293,-0.4298,-0.4302,-0.4245,-0.4245,-0.4245,0,0,-0.4558,-0.4538,-0.4536,-0.4519,-0.4493,-0.4471,-0.4471,-0.4438,-0.4425,-0.4415,-0.4387,-0.4377,-0.4353,-0.4337,-0.4325,-0.435,-0.4329,-0.4346,-0.4371,-0.4372,-0.4376,-0.4379,-0.4389,-0.4393,-0.4348,-0.4348,-0.4348,0,-0.4584,-0.4569,-0.4538,-0.4531,-0.452,-0.4486,-0.4484,-0.4469,-0.4439,-0.4432,-0.4419,-0.439,-0.437,-0.4363,-0.4369,-0.4361,-0.436,-0.435,-0.4378,-0.4381,-0.4384,-0.4393,-0.4397,-0.435,-0.435,-0.435,-0.435,0,-0.4603,-0.4593,-0.4595,-0.4568,-0.4557,-0.4552,-0.4522,-0.4514,-0.4495,-0.4475,-0.4466,-0.4442,-0.4422,-0.4418,-0.4399,-0.4409,-0.4402,-0.4385,-0.4363,-0.4392,-0.44,-0.4403,-0.4354,-0.4353,-0.4352,-0.4352,0,0,-0.4658,-0.4615,-0.4616,-0.4604,-0.4573,-0.4564,-0.4559,-0.454,-0.4535,-0.4516,-0.4511,-0.4493,-0.4476,-0.4463,-0.4442,-0.4443,-0.4466,-0.4425,-0.4423,-0.4434,-0.4476,-0.449,-0.4495,-0.4452,-0.4452,-0.4452,-0.4479,0,-0.4683,-0.4671,-0.4644,-0.4642,-0.4632,-0.46,-0.4596,-0.4577,-0.4558,-0.4548,-0.4527,-0.4515,-0.4494,-0.4486,-0.4485,-0.4463,-0.4474,-0.4461,-0.4447,-0.4447,-0.4455,-0.4499,-0.4513,-0.4539,-0.4482,-0.4482,-0.4482,0,-0.471,-0.4694,-0.469,-0.4661,-0.4656,-0.4653,-0.4634,-0.4624,-0.4603,-0.4589,-0.4576,-0.4553,-0.4546,-0.4526,-0.4517,-0.4509,-0.4502,-0.449,-0.449,-0.4488,-0.4467,-0.4498,-0.4547,-0.4551,-0.4487,-0.4487,-0.4486,0,-0.4751,-0.4728,-0.4724,-0.4714,-0.468,-0.4678,-0.4664,-0.4641,-0.4632,-0.4616,-0.461,-0.4593,-0.4584,-0.4571,-0.4545,-0.4532,-0.4539,-0.4516,-0.4528,-0.4529,-0.4531,-0.4531,-0.4579,-0.4526,-0.4526,-0.4525,-0.4525,0,-0.4782,-0.4781,-0.4742,-0.4739,-0.4738,-0.4707,-0.4707,-0.4689,-0.467,-0.4664,-0.4635,-0.4629,-0.4594,-0.4585,-0.4564,-0.4561,-0.4556,-0.4546,-0.454,-0.4549,-0.455,-0.4543,-0.4541,-0.4526,-0.4526,-0.4526,-0.4526,0,-0.4827,-0.4801,-0.4794,-0.4763,-0.4755,-0.4755,-0.4729,-0.4725,-0.4705,-0.4698,-0.4694,-0.4663,-0.4651,-0.4623,-0.4604,-0.459,-0.4592,-0.4581,-0.4599,-0.4596,-0.4609,-0.4609,-0.4655,-0.466,-0.4603,-0.4604,-0.4604,0,-0.4849,-0.4848,-0.4817,-0.4811,-0.4798,-0.4788,-0.4779,-0.4749,-0.4741,-0.4717,-0.4717,-0.4703,-0.469,-0.4672,-0.4648,-0.4633,-0.4623,-0.464,-0.462,-0.4629,-0.4624,-0.4625,-0.4625,-0.4644,-0.4645,-0.4646,-0.4646,0,-0.489,-0.4878,-0.4866,-0.485,-0.484,-0.4826,-0.481,-0.4807,-0.4774,-0.4766,-0.4754,-0.4744,-0.4725,-0.4711,-0.4693,-0.4678,-0.4657,-0.4653,-0.4655,-0.4664,-0.4675,-0.467,-0.4612,-0.4652,-0.4651,-0.4651,-0.4651,-0.465,-0.4925,-0.4923,-0.4902,-0.489,-0.4875,-0.4861,-0.4857,-0.4837,-0.4826,-0.4809,-0.4792,-0.4782,-0.4761,-0.4735,-0.4722,-0.4714,-0.4703,-0.4705,-0.4706,-0.4708,-0.4712,-0.4676,-0.471,-0.471,-0.471,-0.471,-0.471,0,-0.4966,-0.4951,-0.494,-0.492,-0.4911,-0.4892,-0.4874,-0.4868,-0.4859,-0.4842,-0.483,-0.4817,-0.4805,-0.478,-0.4765,-0.4764,-0.4754,-0.4761,-0.4761,-0.4758,-0.4722,-0.4722,-0.4769,-0.4769,-0.4769,-0.4769,-0.4769,-0.4769,-0.4986,-0.4982,-0.4967,-0.4957,-0.4941,-0.4931,-0.4923,-0.4911,-0.4897,-0.4884,-0.4873,-0.4857,-0.4838,-0.4822,-0.481,-0.4803,-0.4799,-0.481,-0.48,-0.4766,-0.4761,-0.4755,-0.4755,-0.4809,-0.4809,-0.4837,-0.4837,-0.4838]},{"header":{"parameterUnit":"m.s-1","parameterCategory":1,"la1":30.2991,"la2":30.254,"lo1":-89.0895,"lo2":-89.0444,"dy":0.0017,"dx":0.0017,"nx":28,"ny":28,"refTime":"2025-09-04T09:00:00:Z","depth":0,"parameterNumber":3,"parameterNumberName":"V-component_of_WINDS"},"data":[0,0,0,0,0,0,0,0,0,0,0,0,0,0,0,0,0,0,0,0,0,0,0,0,0,0,0,0,0,0,0,0,0,0,0,0,0,0,0,0,0,0,0,0,0,0,0,0,0,0,0,0,0,0,0,0,0,0,3.9043,3.9043,0,3.9052,3.9052,3.9052,3.9087,3.9088,3.9088,3.9089,3.9095,3.9095,3.9094,0,0,0,0,0,0,0,0,0,0,0,0,0,3.9055,3.9055,3.9043,3.9043,3.9044,3.9052,3.9052,3.9052,3.9087,3.9088,3.9089,3.9089,3.9095,3.9095,3.9094,0,0,0,0,0,0,0,0,0,0,0,0,0,3.9055,3.9054,3.9043,3.9062,3.9064,3.9052,3.9052,3.9052,3.9086,3.9088,3.9089,3.909,3.9096,3.9095,3.9094,3.9064,0,0,3.9091,3.9091,0,0,0,0,0,0,0,0,3.9055,3.9055,3.9059,3.9061,3.9063,3.9069,3.9058,3.9056,3.9086,3.9078,3.9089,3.9091,3.9085,3.9086,3.9084,3.9064,3.9064,3.9091,3.9091,3.909,3.909,0,0,0,0,0,0,0,3.9055,3.9054,3.9047,3.9059,3.9061,3.9069,3.907,3.9058,3.9074,3.9078,3.9081,3.9082,3.9087,3.9085,3.9085,3.9064,3.9091,3.909,3.909,3.9089,3.9018,3.9017,0,0,0,0,0,0,3.9053,3.9054,3.9046,3.9047,3.9062,3.9068,3.9069,3.9066,3.9075,3.9077,3.9081,3.9083,3.9086,3.9086,3.9085,3.9049,3.909,3.9089,3.9089,3.9019,3.9018,3.9016,0,0,0,0,0,0,3.9053,3.9052,3.9046,3.9051,3.9051,3.9066,3.9062,3.9065,3.9064,3.9076,3.9079,3.9076,3.9087,3.9086,3.9069,3.905,3.9089,3.9088,3.9021,3.9019,3.9017,3.8977,0,0,0,0,0,0,3.9053,3.9052,3.9041,3.9051,3.9051,3.903,3.9061,3.9065,3.9063,3.9066,3.9073,3.9075,3.9088,3.907,3.9068,3.9049,3.9087,3.9023,3.902,3.9018,3.898,3.8974,3.8968,0,0,0,0,0,3.9053,3.9029,3.904,3.9039,3.9038,3.9029,3.9029,3.9045,3.9061,3.905,3.9058,3.9075,3.9052,3.9068,3.9066,3.9046,3.9024,3.9021,3.9018,3.8983,3.8975,3.8969,0,0,0,0,0,0,3.9016,3.9031,3.9043,3.9022,3.9024,3.9035,3.9021,3.9036,3.9033,3.9037,3.9056,3.9057,3.9036,3.904,3.9056,3.9017,3.9041,3.9037,3.9015,3.9008,3.9002,3.9001,3.9087,0,0,0,0,0,3.9005,3.8998,3.9011,3.8991,3.8991,3.9006,3.9003,3.9015,3.9017,3.9018,3.9025,3.9026,3.9019,3.9014,3.9008,3.8981,3.8982,3.8967,3.8961,3.8956,3.8952,3.8936,3.8929,3.9006,3.9006,3.9006,0,0,3.8983,3.899,3.8984,3.8983,3.8986,3.8977,3.9006,3.8996,3.8988,3.9016,3.9,3.9004,3.9007,3.8984,3.8974,3.8986,3.8932,3.8953,3.8949,3.8947,3.8932,3.8925,3.8919,3.9004,3.9005,3.9005,0,0,3.8937,3.8943,3.8926,3.8928,3.8933,3.8943,3.8938,3.8947,3.8951,3.8935,3.8956,3.8947,3.8935,3.8935,3.8934,3.8888,3.8903,3.8885,3.8855,3.8839,3.8833,3.8827,3.8809,3.8802,3.8882,3.8882,3.8882,0,3.8909,3.8896,3.8915,3.8902,3.89,3.8926,3.8908,3.891,3.8911,3.8909,3.8923,3.8908,3.8912,3.8888,3.8877,3.8875,3.887,3.8884,3.8832,3.8827,3.8822,3.8805,3.8798,3.888,3.888,3.888,3.888,0,3.886,3.885,3.8836,3.8838,3.8834,3.8819,3.8834,3.8829,3.8841,3.8849,3.8831,3.8837,3.8832,3.8827,3.8839,3.8805,3.8812,3.8829,3.8853,3.8812,3.8796,3.879,3.8876,3.8877,3.8878,3.8878,0,0,3.8789,3.8802,3.8796,3.8796,3.8803,3.8796,3.8781,3.8777,3.8771,3.8771,3.8758,3.8747,3.8763,3.8761,3.8773,3.8759,3.872,3.8778,3.8778,3.8765,3.868,3.8665,3.8658,3.8731,3.8729,3.8728,3.8679,0,3.8744,3.872,3.8737,3.871,3.87,3.8725,3.8712,3.8714,3.8721,3.8713,3.8721,3.8712,3.8734,3.8733,3.872,3.8727,3.8702,3.8731,3.8716,3.8716,3.8713,3.8649,3.8635,3.8588,3.8673,3.8672,3.8671,0,3.8688,3.8686,3.8658,3.8666,3.8662,3.8651,3.8647,3.864,3.8642,3.8648,3.8646,3.8661,3.8646,3.8671,3.8649,3.8668,3.8664,3.8666,3.8664,3.8662,3.8689,3.8643,3.8573,3.8565,3.8662,3.8662,3.8663,0,3.8637,3.8628,3.861,3.861,3.8618,3.8609,3.8612,3.8616,3.8612,3.8609,3.8606,3.8601,3.8598,3.8593,3.8606,3.8623,3.8581,3.8608,3.8584,3.8583,3.8572,3.8573,3.8498,3.8573,3.8573,3.8573,3.8573,0,3.8584,3.8565,3.8587,3.8575,3.8555,3.8573,3.8552,3.8558,3.856,3.8549,3.857,3.8559,3.8578,3.8568,3.8578,3.8557,3.8556,3.8559,3.8562,3.8556,3.8555,3.8552,3.8555,3.8571,3.8571,3.8572,3.8572,0,3.8522,3.8537,3.8518,3.8528,3.853,3.8514,3.8522,3.8511,3.852,3.8505,3.8503,3.8516,3.8506,3.8518,3.8509,3.8516,3.8487,3.8495,3.8486,3.8487,3.8462,3.8463,3.8381,3.837,3.8453,3.8452,3.8452,0,3.8486,3.8473,3.8481,3.8476,3.8478,3.8469,3.8465,3.8482,3.8477,3.8478,3.8466,3.8458,3.8452,3.8434,3.8442,3.8435,3.8442,3.8413,3.844,3.8435,3.8438,3.8438,3.8436,3.8407,3.8406,3.8405,3.8405,0,3.842,3.8428,3.8422,3.8418,3.8413,3.841,3.8409,3.8403,3.8422,3.8415,3.8405,3.84,3.8391,3.8381,3.8376,3.8378,3.8393,3.8396,3.839,3.8383,3.8377,3.8378,3.8468,3.8398,3.8398,3.8399,3.8399,3.84,3.8369,3.8358,3.8361,3.8354,3.8355,3.8353,3.8343,3.8351,3.8343,3.8337,3.8348,3.8334,3.8336,3.833,3.833,3.8319,3.8331,3.8322,3.832,3.8317,3.8312,3.8381,3.8318,3.8319,3.8319,3.8319,3.8319,0,3.8302,3.8306,3.8299,3.8297,3.829,3.8308,3.8307,3.83,3.8288,3.8289,3.8282,3.827,3.8261,3.8268,3.826,3.8249,3.8256,3.8246,3.8246,3.8246,3.8303,3.8308,3.8241,3.8241,3.8241,3.8241,3.8241,3.8241,3.8267,3.8247,3.8255,3.8236,3.824,3.8227,3.8225,3.8223,3.8224,3.8209,3.8202,3.8207,3.8209,3.8201,3.8193,3.8195,3.819,3.8177,3.8182,3.8234,3.8242,3.8249,3.8254,3.8177,3.8177,3.8126,3.8125,3.8125]}]]